Regional Weather Roundup
Issued by NWS Little Rock, AR

Home | Current Version | Previous Version | Text Only | Print | Product List | Glossary On
Versions: 1 2 3 4 5 6 7 8 9 10 11 12 13 14 15 16 17 18 19 20 21 22 23 24 25 26 27 28 29 30 31 32 33 34 35 36 37 38 39 40 41 42 43 44 45 46 47 48 49 50
000
ASUS44 KLZK 260705
RWRLZK

WEATHER ROUNDUP FOR ARKANSAS
NATIONAL WEATHER SERVICE LITTLE ROCK AR
200 AM CDT WED JUL 26 2017

NOTE: "FAIR" INDICATES FEW OR NO CLOUDS BELOW 12,000 FEET WITH NO
SIGNIFICANT WEATHER AND/OR OBSTRUCTIONS TO VISIBILITY.

ARZ001-003-010-029-260800-
NORTHWEST ARKANSAS

CITY           SKY/WX    TMP DP  RH WIND       PRES   REMARKS
FAYETTEVILLE   CLEAR     73  73 100 CALM      30.11S
FORT SMITH     CLEAR     80  74  81 CALM      30.05S HX  85
HARRISON       CLEAR     78  71  79 W6        30.11S
BENTONVILLE    CLEAR     79  70  73 CALM      30.11S
ROGERS         CLEAR     78  72  81 S7        30.12S
SILOAM SPGS    CLEAR     75  70  83 SE5       30.10S
HIGHFILL       CLEAR     77  73  87 S5        30.11S
$$

ARZ004-005-016-260800-
NORTH CENTRAL ARKANSAS

CITY           SKY/WX    TMP DP  RH WIND       PRES   REMARKS
BATESVILLE     CLEAR     81  73  78 SW3       30.07F HX  85
FLIPPIN        CLEAR     75  68  78 CALM      30.06R
MTN HOME       CLEAR     76  72  87 S5        30.08S
$$

ARZ040-041-260800-
WEST CENTRAL ARKANSAS

CITY           SKY/WX    TMP DP  RH WIND       PRES   REMARKS
MENA           PTCLDY    82  73  74 CALM      30.11S HX  88
MOUNT IDA      PTCLDY    74  71  91 CALM      30.08S
$$

ARZ009-017-025-026-028-260800-
NORTHEAST ARKANSAS

CITY           SKY/WX    TMP DP  RH WIND       PRES   REMARKS
JONESBORO      CLEAR     79  78  97 SW3       30.06S
WALNUT RIDGE   CLEAR     79  75  89 S7        30.06S
BLYTHEVILLE    CLEAR     80  78  94 S5        30.07R HX  88
$$

ARZ022-023-033-042-044-260800-
CENTRAL ARKANSAS

CITY           SKY/WX    TMP DP  RH WIND       PRES   REMARKS
LITTLE ROCK    CLEAR     81  75  82 SW8       30.07S HX  87
N LITTLE ROCK    N/A     80  74  83 CALM      30.06S
JACKSONVILLE   CLEAR     78  78  99 CALM      30.07S
CONWAY           N/A     81  73  78 S6        30.05S HX  85
SEARCY         CLEAR     78  78 100 CALM      30.09S FOG
HOT SPRINGS    CLEAR     79  74  84 CALM      30.09S
RUSSELLVILLE   CLEAR     76  74  93 CALM      30.07R
CLINTON        FAIR      75  73  94 CALM      30.09R FOG
$$

ARZ036-260800-
EAST ARKANSAS

CITY           SKY/WX    TMP DP  RH WIND       PRES   REMARKS
WEST MEMPHIS   CLEAR     76  76 100 S5        30.06F
$$

ARZ050-053-066-070-073-260800-
SOUTHWEST ARKANSAS

CITY           SKY/WX    TMP DP  RH WIND       PRES   REMARKS
ARKADELPHIA    FAIR      75  73  93 CALM      30.09R
CAMDEN         PTCLDY    73  68  83 CALM      30.08S
TEXARKANA      CLEAR     78  71  79 S8        30.09R
EL DORADO      CLEAR     73  70  90 CALM      30.10S
DE QUEEN       PTCLDY    74  74 100 CALM      30.06S FOG
$$

ARZ056-057-069-260800-
SOUTHEAST ARKANSAS

CITY           SKY/WX    TMP DP  RH WIND       PRES   REMARKS
PINE BLUFF     CLEAR     79  73  82 SW5       30.08S
STUTTGART      CLEAR     81  63  54 SW6       30.08S
MONTICELLO     CLEAR     80  71  74 SW7       30.09S

$$





USA.gov is the U.S. government's official web portal to all federal, state and local government web resources and services.